Regional Weather Roundup
Issued by NWS New Orleans/Baton Rouge, LA

Home | Current Version | Previous Version | Graphics & Text | Print | Product List | Glossary On
Versions: 1 2 3 4 5 6 7 8 9 10 11 12 13 14 15 16 17 18 19 20 21 22 23 24 25 26 27 28 29 30 31 32 33 34 35 36 37 38 39 40 41 42 43 44 45 46 47 48 49 50
889
ASUS44 KLIX 230105
RWRLIX
NEW ORLEANS REGIONAL WEATHER ROUNDUP
NATIONAL WEATHER SERVICE NEW ORLEANS LA
700 PM CST SAT NOV 22 2014

NOTE: "FAIR" INDICATES FEW OR NO CLOUDS BELOW 12,000 FEET WITH NO
      SIGNIFICANT WEATHER AND/OR OBSTRUCTIONS TO VISIBILITY.
      SKY/WX - SKY CONDITION AND SIGNIFICANT WEATHER.
      TMP - AIR TEMPERATURE.     DP    - DEWPOINT TEMPERATURE.
      RH  - RELATIVE HUMIDITY.   PRES  - PRESSURE.
      HI  - HEAT INDEX.          WCI   - WIND CHILL INDEX.

*  THESE STATIONS ARE NOT NWS OR FAA STATIONS AND ARE NOT UNDER
   NWS QUALITY CONTROL.

LAZ038-040-048-061>063-065>067-069-230200-
SOUTHEAST LOUISIANA

CITY           SKY/WX    TMP DP  RH WIND       PRES   REMARKS
N.O. AUDUBON     N/A     64  61  91 MISG        N/A
N.O. INTL ARPT CLOUDY    64  59  83 E13       30.01S
N.O. LAKEFRONT CLOUDY    62  58  86 E16       30.03R
N.O. DOWNTOWN* CLOUDY    61  55  82 NE5       30.03R
SLIDELL        CLOUDY    65  60  84 E7        30.02F
BATON ROUGE    CLOUDY    64  58  80 E13       29.99F
BOOTHVILLE     LGT RAIN  66  65  96 E9        30.00F
BELLE CHASSE   CLOUDY    65  60  84 E12       30.01R
BOGALUSA*        N/A     64  57  79 NE3       30.05S
NEW ROADS*     CLOUDY    64  59  83 E16       29.97F
GONZALES*      CLOUDY    62  62  99 E7        29.99F
HAMMOND*       CLOUDY    63  57  82 E9        30.02F
HOUMA*         CLOUDY    64  62  93 NE10      29.98F
PORT FOURCHON* CLOUDY    66  64  94 NE12      30.01F

$$

MSZ070-080>082-230200-
SOUTHERN MISSISSIPPI

CITY           SKY/WX    TMP DP  RH WIND       PRES   REMARKS
MCCOMB         CLOUDY    61  53  75 E5        30.03F
GULFPORT       CLOUDY    64  60  87 E15       30.04F
BILOXI         CLOUDY    63  60  92 E9G21     30.05S
PASCAGOULA     CLOUDY    62  59  90 E7        30.06F
STENNIS ARPT*  CLOUDY    64  57  77 E12G21    30.05S

$$

COASTAL OBSERVATIONS
LAKE AND NEARSHORE STATIONS

STATION/POSITION TIME  TEMP    WIND        PRES    WAVE
                       AIR SEA DIR/SP/G            HT/PER
                 (UTC) (F)     (DEG/KT/KT) (MB)    (FT/S)
PASCAGOULA       0100   61      70/ 13/ 17 1017.4
WAVELAND YACHT   0100   62     100/ 17/ 23 1015.7
GRAND ISLE       0100   65 62   40/  5/ 10 1016.2
SOUTHWEST PASS   0100   70 72              1015.9
NEW CANAL        0100   63 55   80/  8/ 11 1016.7
SHELL BEACH      0100   62 53  100/ 13/ 15 1016.0

OFFSHORE STATIONS

STATION/POSITION TIME  TEMP    WIND        PRES    WAVE
                       AIR SEA DIR/SP/G            HT/PER
                 (UTC) (F)     (DEG/KT/KT) (MB)    (FT/S)

$$




USA.gov is the U.S. government's official web portal to all federal, state and local government web resources and services.